STARLINK AK (44268 NORAD) Tracking and Keplerian Element Data

This shows tracking and keplerian element data for the satellite.

Feedback or suggestion? Click here.




ElementValue
Catalog44268
NameSTARLINK AK
Epoch Orbit462
Epoch Day174.0326471
Epoch Year2019
RAAN37.4442
Inclination52.9996
Eccentricity0.0002455
Argument of Perigee101.8849
Mean Anonmoly258.2414
Mean Motion15.05363049
Decay Rate1.208E-05
L11 44268U 19029AK 19174.03264710 .00001208 00000-0 10263-3 0 9996
L22 44268 52.9996 37.4442 0002455 101.8849 258.2414 15.05363049 4621

Live tracking and technical data element details for STARLINK AK (NORAD 44268). STARLINK AK can be tracked NOW for your location showing map with azimuth and elevation plus other details from your city location.

Track the satellite on the map from your city or location and see movement details for azimuth, elevation, latitude, longitude, range, height, and movement on the map or in text.







IsCatalogInMostPopularTable: catalog: 44268, numindb: 37
Update: records affected: 1



GetName: 44268 STARLINK AK

Hit Count: updated at: Sun, 21 Jul 2019 21:54:49 GMT